KF4ERV-4 Weather Reports


time (UTC)temp
F
wind
direction
speed
knots
gust
knots
rain 1hr
in
rain 24hr
in
rain mn
in
humidity
%
barometer
mb
20260905205000 95 295 0.0 0.9 0.00 0.00 0.00 67 1011.9
20260905204838 96 299 0.0 0.0 0.00 0.00 0.00 67 1011.9
20260905204503 96 299 0.0 0.0 0.00 0.00 0.00 67 1011.9
20260905204005 96 293 0.0 0.9 0.00 0.00 0.00 67 1011.9
20260905203458 96 313 0.0 0.9 0.00 0.00 0.00 66 1011.9
20260905203002 96 282 0.0 0.9 0.00 0.00 0.00 66 1011.9
20260905202918 96 306 0.0 0.9 0.00 0.00 0.00 65 1011.9
20260905202504 96 306 0.0 0.9 0.00 0.00 0.00 65 1011.9
20260905202429 96 334 0.0 0.9 0.00 0.00 0.00 65 1011.9
20260905201938 96 321 0.0 1.7 0.00 0.00 0.00 65 1012.0
20260905201459 96 321 0.0 1.7 0.00 0.00 0.00 65 1012.0
20260905200957 96 300 0.0 1.7 0.00 0.00 0.00 65 1012.1
20260905200505 97 323 0.0 1.7 0.00 0.00 0.00 64 1012.1
20260905200018 96 339 0.0 0.0 0.00 0.00 0.00 64 1013.0
20260905195500 96 297 0.0 0.0 0.00 0.00 0.00 65 1012.9
20260905195002 96 245 0.0 0.0 0.00 0.00 0.00 65 1012.9
20260905194548 96 276 0.0 0.9 0.00 0.00 0.00 64 1012.9
20260905193958 97 303 0.0 0.9 0.00 0.00 0.00 63 1012.9
20260905193608 97 286 0.0 0.9 0.00 0.00 0.00 64 1012.9
20260905193501 97 286 0.0 0.9 0.00 0.00 0.00 64 1012.9
20260905193117 96 306 0.0 1.7 0.00 0.00 0.00 63 1013.0
20260905193004 96 306 0.0 1.7 0.00 0.00 0.00 63 1013.0
20260905192628 95 276 0.0 1.7 0.00 0.00 0.00 64 1012.9
20260905192507 95 276 0.0 1.7 0.00 0.00 0.00 64 1012.9
20260905192138 95 270 0.0 2.6 0.00 0.00 0.00 64 1012.9
20260905191958 95 270 0.0 2.6 0.00 0.00 0.00 64 1012.9
20260905191648 95 309 0.0 2.6 0.00 0.00 0.00 65 1013.0
20260905191502 95 309 0.0 2.6 0.00 0.00 0.00 65 1013.0
20260905191201 94 228 0.0 2.6 0.00 0.00 0.00 66 1012.9
20260905191005 94 228 0.0 2.6 0.00 0.00 0.00 66 1012.9
20260905190456 94 187 0.0 2.6 0.00 0.00 0.00 67 1013.2
20260905190000 94 201 0.0 1.7 0.00 0.00 0.00 65 1013.8
20260905185728 94 103 0.0 0.0 0.00 0.00 0.00 65 1013.9
20260905185502 94 103 0.0 0.0 0.00 0.00 0.00 65 1013.9
20260905185238 94 226 0.0 0.0 0.00 0.00 0.00 65 1013.9
20260905185005 94 226 0.0 0.0 0.00 0.00 0.00 65 1013.9
20260905184747 94 200 0.0 0.0 0.00 0.00 0.00 65 1014.0
20260905184258 95 244 0.0 0.0 0.00 0.00 0.00 65 1013.9
20260905184000 95 244 0.0 0.0 0.00 0.00 0.00 65 1013.9
20260905183809 95 298 0.0 0.0 0.00 0.00 0.00 64 1014.0
20260905183504 95 298 0.0 0.0 0.00 0.00 0.00 64 1014.0
20260905183328 95 248 0.0 0.0 0.00 0.00 0.00 64 1013.9
20260905183007 95 248 0.0 0.0 0.00 0.00 0.00 64 1013.9
20260905182458 95 274 0.0 0.0 0.00 0.00 0.00 63 1014.0
20260905182001 95 270 0.0 0.0 0.00 0.00 0.00 63 1014.0
20260905181848 94 272 0.0 0.0 0.00 0.00 0.00 64 1013.9
20260905181505 94 272 0.0 0.0 0.00 0.00 0.00 64 1013.9
20260905180956 94 242 0.0 0.0 0.00 0.00 0.00 64 1014.1
20260905180501 93 294 0.0 0.9 0.00 0.00 0.00 64 1014.0
20260905180419 93 295 0.0 0.9 0.00 0.00 0.00 64 1014.0
20260905180003 93 295 0.0 0.9 0.00 0.00 0.00 64 1014.0
20260905175505 92 87 0.0 0.0 0.00 0.00 0.00 64 1013.9
20260905174957 93 273 0.0 0.0 0.00 0.00 0.00 63 1013.9
20260905174501 92 256 0.0 0.0 0.00 0.00 0.00 63 1014.0
20260905174003 92 317 0.0 0.0 0.00 0.00 0.00 64 1013.9
20260905173507 91 217 0.0 0.0 0.00 0.00 0.00 64 1013.9
20260905172958 90 219 0.0 0.0 0.00 0.00 0.00 63 1014.0
20260905172501 90 187 0.0 1.7 0.00 0.00 0.00 62 1014.3
20260905172005 90 221 0.0 1.7 0.00 0.00 0.00 62 1014.1
20260905171557 90 342 0.0 0.0 0.00 0.00 0.00 62 1014.2
20260905171456 90 342 0.0 0.0 0.00 0.00 0.00 62 1014.2
20260905171000 89 99 0.0 0.0 0.00 0.00 0.00 61 1014.1
20260905170617 89 268 0.0 0.0 0.00 0.00 0.00 61 1014.8
20260905170502 89 268 0.0 0.0 0.00 0.00 0.00 61 1014.8
20260905170324 88 238 0.0 0.0 0.00 0.00 0.00 61 1014.9
20260905170128 88 238 0.0 0.0 0.00 0.00 0.00 61 1014.9
20260905170006 88 238 0.0 0.0 0.00 0.00 0.00 61 1014.9
20260905165638 89 250 0.0 0.0 0.00 0.00 0.00 60 1015.0
20260905165457 89 250 0.0 0.0 0.00 0.00 0.00 60 1015.0
20260905165148 88 308 0.0 0.0 0.00 0.00 0.00 60 1014.9
20260905165000 88 308 0.0 0.0 0.00 0.00 0.00 60 1014.9
20260905164700 87 276 0.0 0.0 0.00 0.00 0.00 59 1014.9
20260905164006 87 208 0.0 0.0 0.00 0.00 0.00 58 1014.9
20260905163720 87 274 0.0 0.0 0.00 0.00 0.00 58 1014.9
20260905163458 87 274 0.0 0.0 0.00 0.00 0.00 58 1014.9
20260905163001 86 86 0.0 0.0 0.00 0.00 0.00 57 1015.1
20260905162739 86 196 0.0 0.0 0.00 0.00 0.00 56 1015.7
20260905162505 86 196 0.0 0.0 0.00 0.00 0.00 56 1015.7
20260905162249 86 275 0.0 0.0 0.00 0.00 0.00 55 1015.6
20260905161958 86 275 0.0 0.0 0.00 0.00 0.00 55 1015.6
20260905161758 85 207 0.0 0.0 0.00 0.00 0.00 55 1014.9
20260905161501 85 207 0.0 0.0 0.00 0.00 0.00 55 1014.9
20260905161310 85 94 0.0 0.0 0.00 0.00 0.00 55 1014.9
20260905161003 85 94 0.0 0.0 0.00 0.00 0.00 55 1014.9
20260905160820 85 99 0.0 0.0 0.00 0.00 0.00 54 1014.9
20260905160506 85 99 0.0 0.0 0.00 0.00 0.00 54 1014.9
20260905160328 85 84 0.0 0.0 0.00 0.00 0.00 53 1014.9
20260905155958 85 84 0.0 0.0 0.00 0.00 0.00 53 1014.9
20260905155837 85 125 0.0 0.0 0.00 0.00 0.00 51 1015.1
20260905155501 85 125 0.0 0.0 0.00 0.00 0.00 51 1015.1
20260905155350 85 197 0.0 0.0 0.00 0.00 0.00 49 1015.6
20260905154858 84 220 0.0 0.0 0.00 0.00 0.00 49 1015.7
20260905154506 84 220 0.0 0.0 0.00 0.00 0.00 49 1015.7
20260905153958 84 289 0.0 0.0 0.00 0.00 0.00 48 1015.9
20260905153928 84 197 0.0 0.0 0.00 0.00 0.00 48 1016.0
20260905153501 84 197 0.0 0.0 0.00 0.00 0.00 48 1016.0
20260905153005 83 211 0.0 0.0 0.00 0.00 0.00 47 1016.0
20260905151957 83 238 0.0 0.0 0.00 0.00 0.00 47 1016.0
20260905151502 83 98 0.0 0.0 0.00 0.00 0.00 45 1015.9
20260905151006 83 198 0.0 0.0 0.00 0.00 0.00 45 1016.0
20260905150458 83 108 0.0 0.0 0.00 0.00 0.00 43 1015.9
20260905150001 83 97 0.0 0.0 0.00 0.00 0.00 41 1016.0
20260905145503 83 132 0.0 0.0 0.00 0.00 0.00 40 1015.9
20260905145006 83 83 0.0 0.0 0.00 0.00 0.00 38 1015.9
20260905144607 83 99 0.0 0.0 0.00 0.00 0.00 37 1016.0
20260905144117 83 117 0.0 0.0 0.00 0.00 0.00 35 1016.1
20260905144002 83 117 0.0 0.0 0.00 0.00 0.00 35 1016.1
20260905143627 82 335 0.0 0.0 0.00 0.00 0.00 33 1015.9
20260905143504 82 335 0.0 0.0 0.00 0.00 0.00 33 1015.9
20260905143137 81 90 0.0 0.0 0.00 0.00 0.00 33 1016.1
20260905142957 81 90 0.0 0.0 0.00 0.00 0.00 33 1016.1
20260905142657 81 87 0.0 0.0 0.00 0.00 0.00 31 1015.9
20260905142459 81 87 0.0 0.0 0.00 0.00 0.00 31 1015.9
20260905142159 80 112 0.0 0.0 0.00 0.00 0.00 29 1015.9
20260905142015 80 112 0.0 0.0 0.00 0.00 0.00 29 1015.9
20260905141505 80 36 0.0 0.0 0.00 0.00 0.00 28 1015.9
20260905141217 80 55 0.0 0.0 0.00 0.00 0.00 26 1015.9
20260905140957 80 55 0.0 0.0 0.00 0.00 0.00 26 1015.9
20260905140500 80 53 0.0 0.0 0.00 0.00 0.00 24 1015.9
20260905140006 79 30 0.0 0.0 0.00 0.00 0.00 21 1015.9
20260905135748 78 46 0.0 0.0 0.00 0.00 0.00 19 1015.9
20260905134959 77 85 0.0 0.0 0.00 0.00 0.00 15 1016.1
20260905134809 77 32 0.0 0.0 0.00 0.00 0.00 14 1016.8
20260905134507 77 32 0.0 0.0 0.00 0.00 0.00 14 1016.8
20260905134318 77 53 0.0 0.0 0.00 0.00 0.00 12 1016.3
20260905134004 77 53 0.0 0.0 0.00 0.00 0.00 12 1016.3
20260905133501 77 57 0.0 0.0 0.00 0.00 0.00 7 1016.4
20260905133343 78 56 0.0 0.0 0.00 0.00 0.00 5 1016.2
20260905132959 78 56 0.0 0.0 0.00 0.00 0.00 5 1016.2
20260905132905 78 47 0.0 0.0 0.00 0.00 0.00 7 1016.9
20260905132005 78 25 0.0 0.0 0.00 0.00 0.00 7 1016.9
20260905131911 78 340 0.0 0.0 0.00 0.00 0.00 1016.9
20260905131004 78 4 0.0 0.0 0.00 0.00 0.00 45 1016.9
20260905130935 78 266 0.0 0.9 0.00 0.00 0.00 54 1017.0
20260905130501 78 266 0.0 0.9 0.00 0.00 0.00 54 1017.0
20260905130437 78 279 0.0 0.9 0.00 0.00 0.00 52 1016.9
20260905130007 78 279 0.0 0.9 0.00 0.00 0.00 52 1016.9
20260905125458 78 28 0.0 0.0 0.00 0.00 0.00 55 1016.9
20260905125007 78 45 0.0 0.0 0.00 0.00 0.00 24 1016.9
20260905124505 79 306 0.0 0.0 0.00 0.00 0.00 9 1016.8
20260905123958 79 349 0.0 0.0 0.00 0.00 0.00 14 1016.5
20260905123538 79 349 0.0 0.0 0.00 0.00 0.00 14 1015.0
20260905123003 79 90 0.0 0.0 0.00 0.00 0.00 11 1014.9
20260905122503 79 57 0.0 0.0 0.00 0.00 0.00 8 1015.1
20260905122107 79 66 0.0 0.0 0.00 0.00 0.00 9 1015.1
20260905120506 79 290 0.0 0.0 0.00 0.00 0.00 6 1015.7
20260905120147 79 81 0.0 0.0 0.00 0.00 0.00 10 1015.2
20260905115958 79 81 0.0 0.0 0.00 0.00 0.00 10 1015.2
20260905115707 79 41 0.0 0.0 0.00 0.00 0.00 64 1015.6
20260905115502 79 41 0.0 0.0 0.00 0.00 0.00 64 1015.6
20260905115004 79 348 0.0 0.0 0.00 0.00 0.00 62 1015.6
20260905113957 79 283 0.0 0.0 0.00 0.00 0.00 60 1014.9
20260905113813 79 334 0.0 0.0 0.00 0.00 0.00 60 1014.9
20260905113742 79 334 0.0 0.0 0.00 0.00 0.00 60 1014.9
20260905113254 79 14 0.0 0.0 0.00 0.00 0.00 59 1014.9
20260905113005 79 14 0.0 0.0 0.00 0.00 0.00 59 1014.9
20260905112307 79 16 0.0 0.0 0.00 0.00 0.00 54 1014.9
20260905111959 79 16 0.0 0.0 0.00 0.00 0.00 54 1014.9
20260905111820 79 15 0.0 0.0 0.00 0.00 0.00 49 1014.9
20260905111502 79 15 0.0 0.0 0.00 0.00 0.00 49 1014.9
20260905111329 79 358 0.0 0.0 0.00 0.00 0.00 43 1014.9
20260905111008 79 358 0.0 0.0 0.00 0.00 0.00 43 1014.9
20260905110839 79 34 0.0 0.0 0.00 0.00 0.00 41 1014.9
20260905110500 79 34 0.0 0.0 0.00 0.00 0.00 41 1014.9
20260905110001 79 11 0.0 0.0 0.00 0.00 0.00 41 1014.6
20260905105903 79 19 0.0 0.0 0.00 0.00 0.00 41 1014.8
20260905105505 79 19 0.0 0.0 0.00 0.00 0.00 41 1014.8
20260905105409 79 347 0.0 0.0 0.00 0.00 0.00 42 1014.1
20260905104956 79 347 0.0 0.0 0.00 0.00 0.00 42 1014.1
20260905104917 79 295 0.0 0.0 0.00 0.00 0.00 52 1014.0
20260905103943 80 292 0.0 0.0 0.00 0.00 0.00 54 1014.0
20260905103507 80 292 0.0 0.0 0.00 0.00 0.00 54 1014.0
20260905102958 80 289 0.0 0.0 0.00 0.00 0.00 54 1014.0
20260905102505 80 294 0.0 0.0 0.00 0.00 0.00 51 1014.0
20260905102005 80 277 0.0 0.0 0.00 0.00 0.00 54 1013.9
20260905101507 80 317 0.0 0.0 0.00 0.00 0.00 58 1014.1
20260905100958 80 297 0.0 0.0 0.00 0.00 0.00 62 1013.9
20260905100500 80 292 0.0 0.0 0.00 0.00 0.00 50 1014.0
20260905100004 80 292 0.0 0.0 0.00 0.00 0.00 7 1013.9
20260905095607 80 292 0.0 0.0 0.00 0.00 0.00 10 1014.0
20260905095457 80 292 0.0 0.0 0.00 0.00 0.00 10 1014.0
20260905094137 81 292 0.0 0.0 0.00 0.00 0.00 12 1014.0
20260905094004 81 292 0.0 0.0 0.00 0.00 0.00 12 1014.0
20260905093457 81 292 0.0 0.0 0.00 0.00 0.00 13 1014.0
20260905093156 81 274 0.0 0.0 0.00 0.00 0.00 14 1013.9
20260905092959 81 274 0.0 0.0 0.00 0.00 0.00 14 1013.9
20260905092708 81 256 0.0 0.0 0.00 0.00 0.00 15 1013.9
20260905092007 81 304 0.0 0.0 0.00 0.00 0.00 16 1013.9
20260905091727 82 315 0.0 0.0 0.00 0.00 0.00 17 1013.9
20260905091459 82 315 0.0 0.0 0.00 0.00 0.00 17 1013.9
20260905091000 82 315 0.0 0.0 0.00 0.00 0.00 18 1014.0
20260905090503 82 306 0.0 0.0 0.00 0.00 0.00 17 1013.9
20260905085956 82 263 0.0 0.0 0.00 0.00 0.00 16 1014.0
20260905085809 82 301 0.0 0.0 0.00 0.00 0.00 15 1013.9
20260905085459 82 301 0.0 0.0 0.00 0.00 0.00 15 1013.9
20260905085316 82 315 0.0 0.0 0.00 0.00 0.00 13 1013.9
20260905085002 82 315 0.0 0.0 0.00 0.00 0.00 13 1013.9
20260905084505 82 312 0.0 0.0 0.00 0.00 0.00 10 1013.9
20260905084339 82 305 0.0 0.0 0.00 0.00 0.00 7 1013.9
20260905083958 82 305 0.0 0.0 0.00 0.00 0.00 7 1013.9
20260905083845 82 318 0.0 0.0 0.00 0.00 0.00 1013.9
20260905083505 82 318 0.0 0.0 0.00 0.00 0.00 1013.9
20260905083400 82 300 0.0 0.0 0.00 0.00 0.00 4 1013.9
20260905083001 82 300 0.0 0.0 0.00 0.00 0.00 4 1013.9
20260905082906 82 259 0.0 0.0 0.00 0.00 0.00 6 1013.0
20260905082506 82 259 0.0 0.0 0.00 0.00 0.00 6 1013.0
20260905082416 82 237 0.0 0.0 0.00 0.00 0.00 6 1013.1
20260905081957 82 237 0.0 0.0 0.00 0.00 0.00 6 1013.1
20260905081928 82 216 0.0 0.0 0.00 0.00 0.00 7 1013.9
20260905081459 82 216 0.0 0.0 0.00 0.00 0.00 7 1013.9
20260905081002 83 195 0.0 0.0 0.00 0.00 0.00 7 1013.1
20260905080500 82 254 0.0 0.0 0.00 0.00 0.00 6 1013.3
20260905075958 83 280 0.0 0.0 0.00 0.00 0.00 6 1013.3
20260905075501 83 321 0.0 0.0 0.00 0.00 0.00 5 1013.9
20260905075003 83 297 0.0 0.0 0.00 0.00 0.00 6 1014.0
20260905074459 82 296 0.0 0.0 0.00 0.00 0.00 1013.9
20260905074000 82 302 0.0 0.0 0.00 0.00 0.00 25 1013.9
20260905073604 81 297 0.0 0.0 0.00 0.00 0.00 60 1013.8
20260905073105 81 292 0.0 0.0 0.00 0.00 0.00 56 1013.9
20260905073005 81 292 0.0 0.0 0.00 0.00 0.00 56 1013.9
20260905072456 81 292 0.0 0.0 0.00 0.00 0.00 57 1013.9
20260905072126 81 292 0.0 0.0 0.00 0.00 0.00 58 1014.0
20260905072000 81 292 0.0 0.0 0.00 0.00 0.00 58 1014.0
20260905071637 81 292 0.0 0.0 0.00 0.00 0.00 59 1013.9
20260905071502 81 292 0.0 0.0 0.00 0.00 0.00 59 1013.9
20260905071220 81 292 0.0 0.0 0.00 0.00 0.00 10 1014.0
20260905071148 81 292 0.0 0.0 0.00 0.00 0.00 10 1014.0
20260905070956 81 292 0.0 0.0 0.00 0.00 0.00 10 1014.0
20260905070707 81 292 0.0 0.0 0.00 0.00 0.00 6 1013.9
20260905070500 81 292 0.0 0.0 0.00 0.00 0.00 6 1013.9
20260905070002 81 292 0.0 0.0 0.00 0.00 0.00 6 1013.9
20260905065506 81 292 0.0 0.0 0.00 0.00 0.00 1013.9
20260905065225 82 292 0.0 0.0 0.00 0.00 0.00 4 1013.9
20260905064956 82 292 0.0 0.0 0.00 0.00 0.00 4 1013.9
20260905064501 82 292 0.0 0.0 0.00 0.00 0.00 10 1013.9
20260905064247 82 292 0.0 0.0 0.00 0.00 0.00 10 1014.0
20260905064004 82 292 0.0 0.0 0.00 0.00 0.00 10 1014.0
20260905063800 82 292 0.0 0.0 0.00 0.00 0.00 7 1013.9
20260905063505 82 292 0.0 0.0 0.00 0.00 0.00 7 1013.9
20260905063307 82 292 0.0 0.0 0.00 0.00 0.00 12 1013.9
20260905062957 82 292 0.0 0.0 0.00 0.00 0.00 12 1013.9
20260905062817 82 292 0.0 0.0 0.00 0.00 0.00 12 1014.1
20260905062500 82 292 0.0 0.0 0.00 0.00 0.00 12 1014.1
20260905062329 82 292 0.0 0.0 0.00 0.00 0.00 15 1014.0
20260905062003 82 292 0.0 0.0 0.00 0.00 0.00 15 1014.0
20260905061837 82 292 0.0 0.0 0.00 0.00 0.00 19 1014.4
20260905061346 82 292 0.0 0.0 0.00 0.00 0.00 20 1014.9
20260905060958 82 292 0.0 0.0 0.00 0.00 0.00 20 1014.9
20260905060857 82 292 0.0 0.0 0.00 0.00 0.00 24 1014.9
20260905060407 82 292 0.0 0.0 0.00 0.00 0.00 24 1014.9
20260905060006 82 292 0.0 0.0 0.00 0.00 0.00 24 1014.9
20260905055917 83 292 0.0 0.0 0.00 0.00 0.00 23 1014.9
20260905055506 83 292 0.0 0.0 0.00 0.00 0.00 23 1014.9
20260905055431 83 292 0.0 0.0 0.00 0.00 0.00 24 1015.0
20260905053959 83 292 0.0 0.0 0.00 0.00 0.00 27 1014.9
20260905053457 83 292 0.0 0.0 0.00 0.00 0.00 30 1014.9
20260905053016 83 290 0.0 0.0 0.00 0.00 0.00 32 1015.0
20260905052508 83 292 0.0 0.0 0.00 0.00 0.00 34 1014.9
20260905051955 83 291 0.0 0.0 0.00 0.00 0.00 34 1015.0
20260905051459 83 292 0.0 0.0 0.00 0.00 0.00 36 1014.9
20260905051004 83 292 0.0 0.0 0.00 0.00 0.00 38 1014.9
20260905050606 83 300 0.0 0.0 0.00 0.00 0.00 39 1014.9
20260905045957 83 315 0.0 0.0 0.00 0.00 0.00 39 1015.0
20260905045628 83 315 0.0 0.0 0.00 0.00 0.00 40 1014.9
20260905045458 83 315 0.0 0.0 0.00 0.00 0.00 40 1014.9
20260905045002 83 315 0.0 0.0 0.00 0.00 0.00 43 1014.9
20260905044648 83 315 0.0 0.0 0.00 0.00 0.00 44 1014.9
20260905044505 83 315 0.0 0.0 0.00 0.00 0.00 44 1014.9
20260905044200 83 317 0.0 0.0 0.00 0.00 0.00 46 1014.9
20260905043957 83 317 0.0 0.0 0.00 0.00 0.00 46 1014.9
20260905043710 83 302 0.0 0.0 0.00 0.00 0.00 48 1015.0
20260905043502 83 302 0.0 0.0 0.00 0.00 0.00 48 1015.0
20260905043003 83 292 0.0 0.0 0.00 0.00 0.00 51 1014.9
20260905042728 83 292 0.0 0.0 0.00 0.00 0.00 53 1015.1
20260905042457 83 292 0.0 0.0 0.00 0.00 0.00 53 1015.1
20260905042241 83 292 0.0 0.0 0.00 0.00 0.00 55 1015.0
20260905041956 83 292 0.0 0.0 0.00 0.00 0.00 55 1015.0
20260905041752 83 292 0.0 0.0 0.00 0.00 0.00 56 1014.9
20260905041501 83 292 0.0 0.0 0.00 0.00 0.00 56 1014.9
20260905041256 84 292 0.0 0.0 0.00 0.00 0.00 56 1014.9
20260905041004 84 292 0.0 0.0 0.00 0.00 0.00 56 1014.9
20260905040809 84 292 0.0 0.0 0.00 0.00 0.00 57 1014.9
20260905040457 84 292 0.0 0.0 0.00 0.00 0.00 57 1014.9
20260905040316 84 292 0.0 0.0 0.00 0.00 0.00 59 1015.0
20260905040000 84 292 0.0 0.0 0.00 0.00 0.00 59 1015.0
20260905035829 84 292 0.0 0.0 0.00 0.00 0.00 60 1014.9
20260905035502 84 292 0.0 0.0 0.00 0.00 0.00 60 1014.9
20260905035337 84 292 0.0 0.0 0.00 0.00 0.00 60 1014.9
20260905035005 84 292 0.0 0.0 0.00 0.00 0.00 60 1014.9
20260905034846 84 292 0.0 0.0 0.00 0.00 0.00 60 1014.9
20260905034400 84 292 0.0 0.0 0.00 0.00 0.00 61 1015.0
20260905034000 84 292 0.0 0.0 0.00 0.00 0.00 61 1015.0
20260905033908 84 292 0.0 0.0 0.00 0.00 0.00 63 1014.9
20260905033458 84 292 0.0 0.0 0.00 0.00 0.00 64 1015.1
20260905033425 84 292 0.0 0.0 0.00 0.00 0.00 64 1015.1
20260905032955 84 292 0.0 0.0 0.00 0.00 0.00 64 1015.1
20260905032458 85 292 0.0 0.0 0.00 0.00 0.00 66 1015.0
20260905032438 85 292 0.0 0.0 0.00 0.00 0.00 66 1014.9
20260905032001 85 292 0.0 0.0 0.00 0.00 0.00 66 1014.9
20260905031459 85 292 0.0 0.0 0.00 0.00 0.00 67 1014.9
20260905030956 85 312 0.0 0.0 0.00 0.00 0.00 68 1015.0
20260905030459 85 315 0.0 0.0 0.00 0.00 0.00 69 1014.8
20260905030002 85 294 0.0 0.0 0.00 0.00 0.00 70 1014.9
20260905025507 85 292 0.0 0.0 0.00 0.00 0.00 70 1014.9
20260905025048 86 301 0.0 0.0 0.00 0.00 0.00 71 1014.9
20260905024501 86 303 0.0 0.0 0.00 0.00 0.00 72 1015.1
20260905024107 86 292 0.0 0.0 0.00 0.00 0.00 72 1014.9
20260905024003 86 292 0.0 0.0 0.00 0.00 0.00 72 1014.9
20260905023616 86 292 0.0 0.0 0.00 0.00 0.00 73 1015.2
20260905023125 86 311 0.0 0.0 0.00 0.00 0.00 74 1015.0
20260905022958 86 311 0.0 0.0 0.00 0.00 0.00 74 1015.0
20260905022636 86 315 0.0 0.0 0.00 0.00 0.00 74 1015.0
20260905022506 86 315 0.0 0.0 0.00 0.00 0.00 74 1015.0
20260905022004 86 315 0.0 0.0 0.00 0.00 0.00 75 1015.0
20260905021659 86 315 0.0 0.0 0.00 0.00 0.00 76 1014.9
20260905020958 87 315 0.0 0.0 0.00 0.00 0.00 77 1014.9
20260905020722 87 315 0.0 0.0 0.00 0.00 0.00 77 1014.9
20260905020502 87 315 0.0 0.0 0.00 0.00 0.00 77 1014.9
20260905015739 87 315 0.0 0.0 0.00 0.00 0.00 78 1014.9
20260905014756 87 296 0.0 0.0 0.00 0.00 0.00 79 1014.5
20260905014504 87 296 0.0 0.0 0.00 0.00 0.00 79 1014.5
20260905014306 87 292 0.0 0.0 0.00 0.00 0.00 79 1014.1
20260905013955 87 292 0.0 0.0 0.00 0.00 0.00 79 1014.1
20260905013831 88 292 0.0 0.0 0.00 0.00 0.00 80 1013.9
20260905013458 88 292 0.0 0.0 0.00 0.00 0.00 80 1013.9
20260905013332 88 292 0.0 0.0 0.00 0.00 0.00 80 1014.0
20260905013001 88 292 0.0 0.0 0.00 0.00 0.00 80 1014.0
20260905012836 88 292 0.0 0.0 0.00 0.00 0.00 80 1013.9
20260905012503 88 292 0.0 0.0 0.00 0.00 0.00 80 1013.9
20260905012346 88 292 0.0 0.0 0.00 0.00 0.00 80 1013.9
20260905011858 88 292 0.0 0.0 0.00 0.00 0.00 80 1013.9
20260905011459 88 292 0.0 0.0 0.00 0.00 0.00 80 1013.9
20260905011408 89 292 0.0 0.0 0.00 0.00 0.00 80 1013.9
20260905010916 89 292 0.0 0.0 0.00 0.00 0.00 79 1013.9
20260905010504 89 292 0.0 0.0 0.00 0.00 0.00 79 1013.9
20260905005957 89 292 0.0 0.0 0.00 0.00 0.00 79 1013.9
20260905005500 90 292 0.0 0.0 0.00 0.00 0.00 79 1014.0
20260905004957 90 292 0.0 0.0 0.00 0.00 0.00 79 1013.9
20260905004507 90 292 0.0 0.0 0.00 0.00 0.00 79 1014.1
20260905003957 90 292 0.0 0.0 0.00 0.00 0.00 78 1013.9
20260905003500 91 292 0.0 0.0 0.00 0.00 0.00 78 1013.9
20260905003036 91 292 0.0 0.0 0.00 0.00 0.00 78 1013.9
20260905002455 91 292 0.0 0.0 0.00 0.00 0.00 77 1013.9
20260905001958 92 292 0.0 0.0 0.00 0.00 0.00 77 1013.9
20260905001610 92 291 0.0 0.0 0.00 0.00 0.00 77 1013.9
20260905001501 92 291 0.0 0.0 0.00 0.00 0.00 77 1013.9
20260905001117 92 312 0.0 0.0 0.00 0.00 0.00 76 1013.9
20260905001005 92 312 0.0 0.0 0.00 0.00 0.00 76 1013.9
20260905000626 92 313 0.0 0.0 0.00 0.00 0.00 76 1014.0
20260905000456 92 313 0.0 0.0 0.00 0.00 0.00 76 1014.0
20260905000139 92 292 0.0 0.0 0.00 0.00 0.00 76 1014.1
20260905000003 92 292 0.0 0.0 0.00 0.00 0.00 76 1014.1
20260904235646 92 292 0.0 0.0 0.00 0.00 0.00 74 1014.0
20260904235505 92 292 0.0 0.0 0.00 0.00 0.00 74 1014.0
20260904235158 93 292 0.0 0.0 0.00 0.00 0.00 73 1014.0
20260904234955 93 292 0.0 0.0 0.00 0.00 0.00 73 1014.0
20260904234706 93 292 0.0 0.0 0.00 0.00 0.00 72 1013.9
20260904234215 93 285 0.0 0.9 0.00 0.00 0.00 72 1013.9
20260904234001 93 285 0.0 0.9 0.00 0.00 0.00 72 1013.9
20260904233726 93 277 0.0 0.9 0.00 0.00 0.00 72 1013.9
20260904233236 94 279 0.0 0.0 0.00 0.00 0.00 72 1013.9
20260904233000 94 279 0.0 0.0 0.00 0.00 0.00 72 1013.9
20260904232748 94 301 0.0 0.0 0.00 0.00 0.00 71 1013.9
20260904232500 94 301 0.0 0.0 0.00 0.00 0.00 71 1013.9
20260904232001 94 298 0.0 0.0 0.00 0.00 0.00 71 1014.0
20260904231807 95 289 0.0 0.0 0.00 0.00 0.00 69 1013.9
20260904231504 95 289 0.0 0.0 0.00 0.00 0.00 69 1013.9
20260904231315 95 284 0.0 0.0 0.00 0.00 0.00 69 1013.9
20260904230956 95 284 0.0 0.0 0.00 0.00 0.00 69 1013.9
20260904230459 95 270 0.0 0.0 0.00 0.00 0.00 69 1014.0
20260904230339 96 295 0.0 0.0 0.00 0.00 0.00 67 1014.0
20260904230003 96 295 0.0 0.0 0.00 0.00 0.00 67 1014.0
20260904225845 96 286 0.0 0.0 0.00 0.00 0.00 68 1014.0
20260904225407 96 280 0.0 0.0 0.00 0.00 0.00 67 1013.9
20260904224957 96 280 0.0 0.0 0.00 0.00 0.00 67 1013.9
20260904224417 96 284 0.0 0.0 0.00 0.00 0.00 68 1013.9
20260904224004 96 284 0.0 0.0 0.00 0.00 0.00 68 1013.9
20260904223927 96 276 0.0 0.0 0.00 0.00 0.00 67 1013.9
20260904222958 97 297 0.0 0.0 0.00 0.00 0.00 67 1013.9
20260904222501 97 302 0.0 0.0 0.00 0.00 0.00 67 1013.9
20260904222006 97 331 0.0 0.0 0.00 0.00 0.00 67 1014.0
20260904221457 97 313 0.0 0.0 0.00 0.00 0.00 67 1013.9
20260904221000 97 319 0.0 0.9 0.00 0.00 0.00 66 1014.0
20260904220503 97 309 0.0 0.9 0.00 0.00 0.00 65 1013.9
20260904215954 97 307 0.0 0.0 0.00 0.00 0.00 66 1014.1
20260904215555 97 303 0.0 0.0 0.00 0.00 0.00 66 1013.9
20260904215105 97 276 0.0 0.0 0.00 0.00 0.00 67 1013.9
20260904215000 97 276 0.0 0.0 0.00 0.00 0.00 67 1013.9
20260904214617 97 290 0.0 0.0 0.00 0.00 0.00 66 1013.9
20260904214126 97 285 0.0 0.0 0.00 0.00 0.00 66 1013.9
20260904213955 97 285 0.0 0.0 0.00 0.00 0.00 66 1013.9
20260904213458 97 316 0.0 0.0 0.00 0.00 0.00 66 1014.0
20260904213146 96 307 0.0 0.0 0.00 0.00 0.00 68 1013.9
20260904213004 96 307 0.0 0.0 0.00 0.00 0.00 68 1013.9
20260904212703 96 275 0.0 0.0 0.00 0.00 0.00 67 1013.9
20260904212505 96 275 0.0 0.0 0.00 0.00 0.00 67 1013.9
20260904212206 97 307 0.0 0.0 0.00 0.00 0.00 66 1014.0
20260904211957 97 307 0.0 0.0 0.00 0.00 0.00 66 1014.0
20260904211720 98 310 0.0 0.0 0.00 0.00 0.00 66 1014.0
20260904211002 98 316 0.0 0.0 0.00 0.00 0.00 66 1013.9
20260904210245 99 310 0.0 0.9 0.00 0.00 0.00 63 1013.9
20260904205958 99 310 0.0 0.9 0.00 0.00 0.00 63 1013.9
20260904205800 99 276 0.0 0.0 0.00 0.00 0.00 63 1013.9
20260904205501 99 276 0.0 0.0 0.00 0.00 0.00 63 1013.9